Weather reports worldwide

Advertisment
Capo Palinuro, Italy (16310): temperature & dewpoint: 08.12.2018 00:00:00 - 14.12.2018 00:00:00 (CET)Capo Palinuro, Italy (16310): wind speed: 08.12.2018 00:00:00 - 14.12.2018 00:00:00 (CET)Capo Palinuro, Italy (16310): wind direction: 08.12.2018 00:00:00 - 14.12.2018 00:00:00 (CET)Capo Palinuro, Italy (16310): reduced air pressure: 08.12.2018 00:00:00 - 14.12.2018 00:00:00 (CET)Capo Palinuro, Italy (16310): visibility: 08.12.2018 00:00:00 - 14.12.2018 00:00:00 (CET)Capo Palinuro, Italy (16310): sunshine duration: 08.12.2018 00:00:00 - 14.12.2018 00:00:00 (CET)
Date & Time tt [°C] td [°C] ff [km/h] ff [kn] dd ppp [hPa] vv [km] sd [min]
14.12.2018 00:00:00 - - - - - - - -
13.12.2018 23:00:00 14,0 12,4 5 3 SSE 1010,9 18 -
13.12.2018 22:00:00 14,0 11,4 8 4 SE 1010,9 20 -
13.12.2018 21:00:00 14,0 11,2 5 3 N 1010,8 20 -
13.12.2018 20:00:00 14,0 11,0 4 2 NNW 1010,8 20 -
13.12.2018 19:00:00 14,0 11,0 5 3 NNW 1010,9 20 0
13.12.2018 18:00:00 14,0 10,4 8 4 NNW 1010,9 20 0
13.12.2018 17:00:00 14,0 11,2 9 5 ESE 1010,9 20 36
13.12.2018 16:00:00 14,2 11,8 8 4 E 1010,9 20 30
13.12.2018 15:00:00 14,4 12,5 11 6 SW 1010,8 20 0
13.12.2018 14:00:00 14,0 10,6 8 4 SSW 1011,4 20 24
13.12.2018 13:00:00 13,6 10,6 9 5 S 1012,3 20 48
13.12.2018 12:00:00 - - - - - - - -
13.12.2018 11:00:00 12,8 10,2 8 4 SSE 1012,8 20 0
13.12.2018 10:00:00 11,6 8,1 15 8 SW 1013,1 20 0
13.12.2018 09:00:00 11,2 7,7 15 8 WSW 1013,1 20 0
13.12.2018 08:00:00 11,2 7,1 11 6 WSW 1013,2 20 0
13.12.2018 07:00:00 11,0 7,3 9 5 WSW 1013,3 15 -
13.12.2018 06:00:00 11,0 8,6 9 5 NW 1013,7 15 -
13.12.2018 05:00:00 11,0 7,5 11 6 NNW 1014,1 15 -
13.12.2018 04:00:00 11,0 7,9 11 6 N 1015,0 10 -
13.12.2018 03:00:00 10,8 8,0 9 5 NW 1015,3 20 -
13.12.2018 02:00:00 10,8 8,2 8 4 WNW 1015,5 20 -
13.12.2018 01:00:00 11,0 9,1 8 4 NNW 1016,0 20 -
13.12.2018 00:00:00 11,0 8,9 9 5 N 1016,2 20 -
12.12.2018 23:00:00 11,2 9,5 9 5 N 1016,3 20 -
12.12.2018 22:00:00 11,6 10,2 11 6 N 1016,3 20 -
12.12.2018 21:00:00 12,2 9,9 8 4 NNW 1016,4 20 -
12.12.2018 20:00:00 12,6 7,9 9 5 NNW 1016,4 20 -
12.12.2018 19:00:00 12,6 7,5 0 0 N 1016,6 20 -
12.12.2018 18:00:00 12,6 7,3 8 4 NNW 1016,8 20 -
12.12.2018 17:00:00 12,6 6,0 9 5 SSW 1017,1 20 -
12.12.2018 16:00:00 13,0 3,4 9 5 WNW 1017,2 20 18
12.12.2018 15:00:00 13,0 1,0 0 0 N 1017,4 20 42
12.12.2018 14:00:00 13,2 1,5 8 4 SSE 1017,7 20 42
12.12.2018 13:00:00 13,0 2,3 9 5 SW 1018,0 20 60
12.12.2018 12:00:00 12,8 5,2 9 5 SW 1018,1 20 60
12.12.2018 11:00:00 12,4 4,4 11 6 W 1018,2 20 60
12.12.2018 10:00:00 12,0 3,5 9 5 NE 1018,2 20 60
12.12.2018 09:00:00 11,0 3,5 9 5 NNE 1017,3 20 60
12.12.2018 08:00:00 10,8 2,9 9 5 NNE 1017,3 20 30
12.12.2018 07:00:00 10,8 3,4 9 5 NNE 1017,3 20 0
12.12.2018 06:00:00 10,8 3,4 8 4 NE 1017,3 20 -
12.12.2018 05:00:00 10,8 2,9 9 5 NE 1017,3 20 -
12.12.2018 04:00:00 11,0 3,5 0 0 N 1017,3 20 -
12.12.2018 03:00:00 11,0 2,8 11 6 NNE 1017,3 20 -
12.12.2018 02:00:00 11,0 3,1 0 0 N 1017,3 20 -
12.12.2018 01:00:00 10,8 3,1 0 0 N 1017,3 20 -
12.12.2018 00:00:00 11,0 3,1 9 5 NNE 1017,3 20 -
11.12.2018 23:00:00 11,0 3,1 9 5 NNE 1017,3 20 -
11.12.2018 22:00:00 11,0 3,1 9 5 NE 1017,1 20 -
11.12.2018 21:00:00 11,0 3,1 11 6 NNE 1016,6 20 -
11.12.2018 20:00:00 11,6 2,6 0 0 N 1016,2 20 -
11.12.2018 19:00:00 13,2 4,4 9 5 NNE 1016,1 20 -
11.12.2018 18:00:00 12,0 3,2 11 6 NNE 1016,1 20 -
11.12.2018 17:00:00 12,4 3,1 9 5 NNE 1015,9 20 30
11.12.2018 16:00:00 12,6 3,5 9 5 NNE 1015,9 20 60
11.12.2018 15:00:00 12,8 4,2 0 0 N 1016,0 20 60
11.12.2018 14:00:00 13,0 3,9 0 0 N 1016,1 20 60
11.12.2018 13:00:00 13,0 2,8 5 3 N 1016,1 20 60
11.12.2018 12:00:00 13,0 4,2 8 4 NNE 1016,1 20 60
11.12.2018 11:00:00 12,0 4,0 0 0 N 1015,9 20 60
11.12.2018 10:00:00 11,8 4,3 5 3 E 1015,4 25 60
11.12.2018 09:00:00 10,8 5,6 9 5 E 1015,0 20 0
11.12.2018 08:00:00 10,6 5,0 9 5 ENE 1014,7 20 0
11.12.2018 07:00:00 10,0 6,4 9 5 NNE 1014,3 20 0
11.12.2018 06:00:00 10,2 7,8 11 6 NNE 1013,7 20 -
11.12.2018 05:00:00 11,0 7,7 11 6 NNE 1013,3 20 -
11.12.2018 04:00:00 11,0 5,8 15 8 NNE 1013,2 20 -
11.12.2018 03:00:00 11,2 7,5 11 6 NNE 1013,1 20 -
11.12.2018 02:00:00 11,0 7,7 13 7 NNE 1013,2 20 -
11.12.2018 01:00:00 11,2 5,9 11 6 NNE 1013,1 20 -
11.12.2018 00:00:00 11,4 5,5 13 7 NE 1012,6 20 -
10.12.2018 23:00:00 11,6 6,3 11 6 NNE 1012,2 20 -
10.12.2018 22:00:00 12,0 7,1 18 10 NNE 1012,1 20 -
10.12.2018 21:00:00 12,0 8,1 16 9 NE 1011,8 20 -
10.12.2018 20:00:00 12,2 9,8 16 9 NE 1011,6 20 -
10.12.2018 19:00:00 13,2 10,2 13 7 NNE 1011,3 20 -
10.12.2018 18:00:00 14,4 11,9 15 8 N 1011,2 18 -
10.12.2018 17:00:00 15,0 11,2 16 9 N 1011,1 20 0
10.12.2018 16:00:00 15,2 10,4 22 12 NW 1011,3 20 60
10.12.2018 15:00:00 15,0 10,0 16 9 WNW 1011,7 20 60
10.12.2018 14:00:00 15,4 12,0 18 10 NW 1011,8 20 48
10.12.2018 13:00:00 15,4 11,4 22 12 NW 1012,0 20 60
10.12.2018 12:00:00 15,6 11,2 21 11 NW 1012,6 20 60
10.12.2018 11:00:00 15,2 11,2 16 9 WNW 1012,4 15 60
10.12.2018 10:00:00 15,0 10,8 16 9 NW 1011,8 20 60
10.12.2018 09:00:00 14,0 10,0 8 4 NW 1010,8 20 60
10.12.2018 08:00:00 13,8 10,0 8 4 NW 1010,8 20 60
10.12.2018 07:00:00 13,8 10,4 5 3 NNW 1010,2 20 -
10.12.2018 06:00:00 14,0 12,0 15 8 WNW 1009,7 12 -
10.12.2018 05:00:00 14,0 12,0 9 5 NW 1009,6 12 -
10.12.2018 04:00:00 14,2 11,7 11 6 NNW 1007,2 12 -
10.12.2018 03:00:00 - - - - - - - -
10.12.2018 02:00:00 - - - - - - - -
10.12.2018 01:00:00 14,2 11,7 15 8 NNW 1007,4 10 -
10.12.2018 00:00:00 15,0 13,0 21 11 N 1009,6 12 -
09.12.2018 23:00:00 15,0 13,0 15 8 WNW 1010,0 10 -
09.12.2018 22:00:00 15,6 13,1 21 11 NNW 1010,0 20 -
09.12.2018 21:00:00 15,6 13,3 34 18 NNW 1010,3 20 -
09.12.2018 20:00:00 15,6 13,1 22 12 WNW 1010,9 20 -
09.12.2018 19:00:00 15,0 12,5 26 14 NNW 1011,4 10 -
09.12.2018 18:00:00 15,4 12,9 21 11 NW 1012,4 10 -
09.12.2018 17:00:00 15,4 13,1 29 16 NNW 1012,4 10 0
09.12.2018 16:00:00 14,0 13,1 28 15 NW 1012,5 10 0
09.12.2018 15:00:00 14,4 13,3 28 15 NNW 1014,2 10 0
09.12.2018 14:00:00 14,4 13,3 2 1 NNW 1015,2 10 0
09.12.2018 13:00:00 14,4 13,3 5 3 NNW 1015,2 10 0
09.12.2018 12:00:00 15,0 10,4 13 7 NNW 1016,1 20 0
09.12.2018 11:00:00 14,8 8,5 5 3 NNW 1016,1 20 12
09.12.2018 10:00:00 14,0 6,1 4 2 N 1016,1 20 60
09.12.2018 09:00:00 13,8 6,2 4 2 NNW 1016,0 20 60
09.12.2018 08:00:00 13,0 5,7 5 3 NNW 1016,1 20 0
09.12.2018 07:00:00 12,4 5,1 4 2 N 1015,4 20 0
09.12.2018 06:00:00 12,4 4,6 4 2 N 1015,2 20 -
09.12.2018 05:00:00 12,2 4,9 5 3 N 1015,2 20 -
09.12.2018 04:00:00 12,0 6,3 5 3 N 1015,2 20 -
09.12.2018 03:00:00 13,0 8,1 5 3 N 1014,9 20 -
09.12.2018 02:00:00 13,0 8,7 8 4 N 1014,3 20 -
09.12.2018 01:00:00 13,2 8,1 9 5 N 1014,0 20 -
09.12.2018 00:00:00 13,4 9,5 8 4 N 1013,9 20 -
08.12.2018 23:00:00 14,2 10,4 8 4 NNW 1012,6 20 -
08.12.2018 22:00:00 14,8 10,6 8 4 N 1012,9 20 -
08.12.2018 21:00:00 15,0 11,4 8 4 N 1012,7 20 -
08.12.2018 20:00:00 15,2 11,2 9 5 NNW 1011,8 10 -
08.12.2018 19:00:00 15,2 10,8 18 10 N 1011,8 15 0
08.12.2018 18:00:00 15,4 11,0 22 12 N 1011,5 15 0
08.12.2018 17:00:00 15,4 10,2 26 14 NNW 1011,4 12 42
08.12.2018 16:00:00 15,6 11,4 28 15 N 1011,5 12 36
08.12.2018 15:00:00 15,6 12,9 26 14 NNW 1011,7 10 36
08.12.2018 14:00:00 15,6 12,2 22 12 WNW 1012,6 10 0
08.12.2018 13:00:00 16,0 13,5 29 16 W 1013,3 10 0
08.12.2018 12:00:00 16,0 12,7 26 14 W 1014,1 15 0
08.12.2018 11:00:00 15,6 12,7 28 15 W 1014,7 15 0
08.12.2018 10:00:00 15,0 12,9 26 14 WSW 1015,1 15 0
08.12.2018 09:00:00 14,8 12,7 21 11 WSW 1015,4 12 0
08.12.2018 08:00:00 14,6 12,3 22 12 WSW 1016,0 12 0
08.12.2018 07:00:00 14,2 11,7 15 8 SW 1016,2 20 0
08.12.2018 06:00:00 13,8 10,4 11 6 W 1017,1 20 -
08.12.2018 05:00:00 13,8 10,4 11 6 WSW 1017,4 20 -
08.12.2018 04:00:00 13,6 11,5 9 5 WNW 1018,1 20 -
08.12.2018 03:00:00 13,6 11,5 11 6 WNW 1018,7 20 -
08.12.2018 02:00:00 13,4 11,6 11 6 NW 1020,1 20 -
08.12.2018 01:00:00 13,4 11,6 9 5 NNW 1020,1 20 -
08.12.2018 00:00:00 13,4 11,3 9 5 NNW 1020,2 20 -

tt = temperature
td = dewpoint
ff = wind speed
dd = wind direction
ppp = reduced air pressure
vv = visibility
sd = sunshine duration

Next stations